• In Uzbekistan
  • List of Countries
  • For 7 days
  • Water Temperature
  • Satellite Maps
  • Weather Map
  • Weather Widgets
  • user-avatar
    Login

    Hourly Weather Rownia

    Today, 24 September, Monday

    Time Temperature Precipitation Wind Pressure Humidity
    00:00 +12°C° 0.3 mm 9 mps 710 mmHg 62%
    01:00 +12°C° 0.3 mm 10 mps 709 mmHg 67%
    02:00 +12°C° 0.3 mm 10 mps 709 mmHg 72%
    03:00 +11°C° 1.7 mm 9 mps 709 mmHg 78%
    04:00 +11°C° 1.7 mm 8 mps 709 mmHg 84%
    05:00 +11°C° 1.7 mm 7 mps 709 mmHg 90%
    06:00 +9°C° 1.2 mm 7 mps 710 mmHg 89%
    07:00 +8°C° 1.2 mm 7 mps 712 mmHg 88%
    08:00 +6°C° 1.2 mm 7 mps 713 mmHg 88%
    09:00 +7°C° 0.1 mm 6 mps 714 mmHg 86%
    10:00 +7°C° 0.1 mm 6 mps 715 mmHg 85%
    11:00 +7°C° 0.1 mm 6 mps 716 mmHg 83%
    12:00 +7°C° 0.1 mm 6 mps 717 mmHg 79%
    13:00 +8°C° 0.1 mm 7 mps 717 mmHg 74%
    14:00 +8°C° 0.1 mm 7 mps 718 mmHg 70%
    15:00 +8°C° 0.1 mm 7 mps 718 mmHg 68%
    16:00 +8°C° 0.1 mm 7 mps 719 mmHg 66%
    17:00 +7°C° 0.1 mm 6 mps 719 mmHg 64%
    18:00 +5°C° 0 mm 6 mps 719 mmHg 67%
    19:00 +5°C° 0 mm 5 mps 720 mmHg 71%
    20:00 +4°C° 0 mm 4 mps 720 mmHg 74%
    21:00 +4°C° 0 mm 4 mps 720 mmHg 74%
    22:00 +4°C° 0 mm 4 mps 720 mmHg 73%
    23:00 +4°C° 0 mm 4 mps 721 mmHg 73%

    Tomorrow, 25 September, Tuesday

    Time Temperature Precipitation Wind Pressure Humidity
    00:00 +2°C° 0.2 mm 5 mps 721 mmHg 77%
    01:00 +2°C° 0.2 mm 5 mps 721 mmHg 81%
    02:00 +2°C° 0.2 mm 5 mps 721 mmHg 85%
    03:00 +2°C° 0.3 mm 5 mps 722 mmHg 87%
    04:00 +3°C° 0.3 mm 4 mps 722 mmHg 89%
    05:00 +3°C° 0.3 mm 4 mps 723 mmHg 92%
    06:00 +3°C° 0.1 mm 4 mps 724 mmHg 91%
    07:00 +4°C° 0.1 mm 4 mps 724 mmHg 90%
    08:00 +4°C° 0.1 mm 4 mps 725 mmHg 89%
    09:00 +5°C° 0.1 mm 5 mps 726 mmHg 81%
    10:00 +6°C° 0.1 mm 5 mps 726 mmHg 73%
    11:00 +7°C° 0.1 mm 6 mps 727 mmHg 65%
    12:00 +7°C° 0.2 mm 6 mps 727 mmHg 63%
    13:00 +8°C° 0.2 mm 6 mps 727 mmHg 60%
    14:00 +8°C° 0.2 mm 6 mps 727 mmHg 57%
    15:00 +8°C° 0.1 mm 6 mps 727 mmHg 56%
    16:00 +8°C° 0.1 mm 5 mps 727 mmHg 56%
    17:00 +8°C° 0.1 mm 4 mps 728 mmHg 56%
    18:00 +6°C° 0 mm 4 mps 728 mmHg 60%
    19:00 +4°C° 0 mm 3 mps 728 mmHg 64%
    20:00 +4°C° 0 mm 2 mps 729 mmHg 68%
    21:00 +3°C° 0 mm 2 mps 729 mmHg 69%
    22:00 +3°C° 0 mm 2 mps 730 mmHg 71%
    23:00 +2°C° 0 mm 2 mps 730 mmHg 73%

    Day after tomorrow, 26 September, Wednesday

    Time Temperature Precipitation Wind Pressure Humidity
    00:00 +2°C° 0 mm 2 mps 730 mmHg 74%
    01:00 +3°C° 0 mm 1 mps 730 mmHg 75%
    02:00 +3°C° 0 mm 1 mps 731 mmHg 76%
    03:00 +3°C° 0 mm 1 mps 731 mmHg 79%
    04:00 +2°C° 0 mm 1 mps 731 mmHg 82%
    05:00 +2°C° 0 mm 1 mps 731 mmHg 84%
    06:00 +3°C° 0 mm 1 mps 731 mmHg 82%
    07:00 +4°C° 0 mm 1 mps 731 mmHg 79%
    08:00 +5°C° 0 mm 1 mps 732 mmHg 76%
    09:00 +7°C° 0 mm 1 mps 732 mmHg 67%
    10:00 +9°C° 0 mm 1 mps 732 mmHg 58%
    11:00 +11°C° 0 mm 1 mps 732 mmHg 48%
    12:00 +10°C° 0 mm 2 mps 731 mmHg 46%
    13:00 +12°C° 0 mm 2 mps 731 mmHg 43%
    14:00 +13°C° 0 mm 2 mps 730 mmHg 41%
    15:00 +12°C° 0 mm 2 mps 730 mmHg 45%
    16:00 +12°C° 0 mm 2 mps 729 mmHg 50%
    17:00 +12°C° 0 mm 2 mps 729 mmHg 54%
    18:00 +9°C° 0 mm 2 mps 728 mmHg 58%
    19:00 +8°C° 0 mm 2 mps 728 mmHg 62%
    20:00 +5°C° 0 mm 3 mps 728 mmHg 65%
    21:00 +5°C° 0 mm 3 mps 728 mmHg 65%
    22:00 +7°C° 0 mm 3 mps 728 mmHg 64%
    23:00 +7°C° 0 mm 3 mps 728 mmHg 64%

    27 September, Thursday

    Time Temperature Precipitation Wind Pressure Humidity
    00:00 +7°C° 0 mm 3 mps 727 mmHg 64%
    01:00 +5°C° 0 mm 3 mps 727 mmHg 63%
    02:00 +5°C° 0 mm 4 mps 727 mmHg 63%
    03:00 +5°C° 0 mm 4 mps 727 mmHg 63%
    04:00 +5°C° 0 mm 4 mps 726 mmHg 63%
    05:00 +5°C° 0 mm 4 mps 726 mmHg 63%
    06:00 +5°C° 0 mm 4 mps 726 mmHg 61%
    07:00 +6°C° 0 mm 4 mps 726 mmHg 60%
    08:00 +6°C° 0 mm 4 mps 725 mmHg 59%
    09:00 +7°C° 0 mm 4 mps 725 mmHg 56%
    10:00 +10°C° 0 mm 4 mps 725 mmHg 53%
    11:00 +11°C° 0 mm 4 mps 726 mmHg 50%
    12:00 +12°C° 0 mm 4 mps 725 mmHg 49%
    13:00 +13°C° 0 mm 4 mps 725 mmHg 48%
    14:00 +15°C° 0 mm 5 mps 725 mmHg 47%
    15:00 +14°C° 0 mm 4 mps 724 mmHg 50%
    16:00 +14°C° 0 mm 4 mps 724 mmHg 53%
    17:00 +14°C° 0 mm 3 mps 723 mmHg 57%
    18:00 +12°C° 0 mm 3 mps 723 mmHg 59%
    19:00 +11°C° 0 mm 3 mps 723 mmHg 61%
    20:00 +9°C° 0 mm 3 mps 723 mmHg 64%
    21:00 +9°C° 0 mm 3 mps 723 mmHg 63%
    22:00 +9°C° 0 mm 3 mps 723 mmHg 63%
    23:00 +8°C° 0 mm 3 mps 723 mmHg 62%

    28 September, Friday

    Time Temperature Precipitation Wind Pressure Humidity
    00:00 +8°C° 0 mm 3 mps 722 mmHg 62%
    01:00 +8°C° 0 mm 3 mps 722 mmHg 62%
    02:00 +8°C° 0 mm 2 mps 722 mmHg 62%
    03:00 +8°C° 0 mm 2 mps 721 mmHg 62%
    04:00 +8°C° 0 mm 2 mps 721 mmHg 62%
    05:00 +8°C° 0 mm 2 mps 720 mmHg 62%
    06:00 +8°C° 0 mm 2 mps 720 mmHg 61%
    07:00 +9°C° 0 mm 2 mps 720 mmHg 61%
    08:00 +10°C° 0 mm 3 mps 720 mmHg 60%
    09:00 +12°C° 0 mm 3 mps 720 mmHg 56%
    10:00 +14°C° 0 mm 3 mps 720 mmHg 52%
    11:00 +17°C° 0 mm 3 mps 721 mmHg 48%
    12:00 +17°C° 0 mm 3 mps 720 mmHg 47%
    13:00 +18°C° 0 mm 2 mps 720 mmHg 47%
    14:00 +19°C° 0 mm 2 mps 720 mmHg 47%
    15:00 +18°C° 0 mm 2 mps 720 mmHg 52%
    16:00 +19°C° 0 mm 1 mps 720 mmHg 56%
    17:00 +18°C° 0 mm 1 mps 720 mmHg 61%
    18:00 +15°C° 0 mm 1 mps 720 mmHg 68%
    19:00 +13°C° 0 mm 1 mps 720 mmHg 75%
    20:00 +11°C° 0 mm 1 mps 720 mmHg 82%
    21:00 +11°C° 0 mm 1 mps 721 mmHg 85%
    22:00 +10°C° 0 mm 1 mps 721 mmHg 87%
    23:00 +10°C° 0 mm 1 mps 721 mmHg 89%

    29 September, Saturday

    Time Temperature Precipitation Wind Pressure Humidity
    00:00 +9°C° 0 mm 2 mps 721 mmHg 90%
    01:00 +9°C° 0 mm 2 mps 721 mmHg 90%
    02:00 +9°C° 0 mm 2 mps 721 mmHg 91%
    03:00 +9°C° 0 mm 2 mps 722 mmHg 91%
    04:00 +9°C° 0 mm 2 mps 722 mmHg 91%
    05:00 +9°C° 0 mm 2 mps 722 mmHg 91%
    06:00 +9°C° 0 mm 2 mps 722 mmHg 90%
    07:00 +9°C° 0 mm 2 mps 723 mmHg 88%
    08:00 +9°C° 0 mm 3 mps 723 mmHg 87%
    09:00 +10°C° 0 mm 3 mps 723 mmHg 81%
    10:00 +11°C° 0 mm 4 mps 724 mmHg 76%
    11:00 +12°C° 0 mm 4 mps 724 mmHg 70%
    12:00 +12°C° 0 mm 4 mps 724 mmHg 67%
    13:00 +13°C° 0 mm 4 mps 724 mmHg 64%
    14:00 +13°C° 0 mm 4 mps 724 mmHg 61%
    15:00 +12°C° 0 mm 4 mps 724 mmHg 64%
    16:00 +12°C° 0 mm 4 mps 724 mmHg 66%
    17:00 +11°C° 0 mm 4 mps 724 mmHg 68%
    18:00 +10°C° 0 mm 3 mps 724 mmHg 74%
    19:00 +8°C° 0 mm 3 mps 724 mmHg 79%
    20:00 +7°C° 0 mm 2 mps 724 mmHg 85%
    21:00 +7°C° 0 mm 2 mps 724 mmHg 86%
    22:00 +6°C° 0 mm 2 mps 724 mmHg 88%
    23:00 +6°C° 0 mm 2 mps 724 mmHg 89%
    Show more